AIR339 OBBI-OMAA

Flight info

Callsign AIR339
Flight time 1h 2m
Altitude 25000
Route BHR DCT ASTAD N318 KAPUM Z522 ALNEV Q415 UKILI
Aircraft A20N/M-SDE2E3FGHIRWXY/LB1

Departure

Time 2026-04-29 14:20
Airport Bahrain International Airport (OBBI)

Arrival

Time 2026-04-29 15:23
Airport Zayed International Airport (OMAA)
Time Latitude Longitude Altitude Speed Heading
2026-04-29 13:32 26.27164 50.62433 17 ft 0 kts 214°
2026-04-29 14:01 26.27172 50.62439 17 ft 2 kts 214°
2026-04-29 14:01 26.27173 50.62439 17 ft 0 kts 214°
2026-04-29 14:02 26.27181 50.62446 18 ft 4 kts 214°
2026-04-29 14:02 26.27205 50.62464 20 ft 4 kts 214°
2026-04-29 14:02 26.27229 50.62482 20 ft 4 kts 214°
2026-04-29 14:02 26.27243 50.62492 20 ft 1 kts 194°
2026-04-29 14:03 26.27252 50.62494 17 ft 1 kts 177°
2026-04-29 14:03 26.27260 50.62493 17 ft 1 kts 160°
2026-04-29 14:03 26.27261 50.62493 17 ft 0 kts 159°
2026-04-29 14:05 26.27255 50.62496 17 ft 4 kts 158°
2026-04-29 14:06 26.27229 50.62535 19 ft 9 kts 122°
2026-04-29 14:06 26.27191 50.62601 17 ft 12 kts 122°
2026-04-29 14:06 26.27147 50.62677 17 ft 13 kts 122°
2026-04-29 14:06 26.27094 50.62771 18 ft 16 kts 122°
2026-04-29 14:07 26.27052 50.62846 19 ft 0 kts 122°
2026-04-29 14:07 26.27041 50.62853 17 ft 4 kts 167°
2026-04-29 14:07 26.27022 50.62848 17 ft 3 kts 191°
2026-04-29 14:08 26.27021 50.62848 17 ft 0 kts 191°
2026-04-29 14:10 26.27020 50.62848 17 ft 0 kts 189°
2026-04-29 14:10 26.27014 50.62851 17 ft 4 kts 168°
2026-04-29 14:10 26.27003 50.62876 17 ft 7 kts 78°
2026-04-29 14:11 26.27000 50.62935 19 ft 9 kts 122°
2026-04-29 14:11 26.26997 50.62952 17 ft 2 kts 71°
2026-04-29 14:11 26.27012 50.62959 17 ft 3 kts 324°
2026-04-29 14:11 26.27042 50.62900 17 ft 10 kts 314°
2026-04-29 14:12 26.27092 50.62892 18 ft 7 kts 22°
2026-04-29 14:12 26.27120 50.62942 18 ft 10 kts 84°
2026-04-29 14:12 26.27083 50.63008 18 ft 12 kts 124°
2026-04-29 14:12 26.27025 50.63100 16 ft 17 kts 125°
2026-04-29 14:13 26.26961 50.63217 15 ft 13 kts 122°
2026-04-29 14:13 26.26909 50.63307 15 ft 16 kts 122°
2026-04-29 14:13 26.26843 50.63424 15 ft 19 kts 122°
2026-04-29 14:13 26.26767 50.63557 -3 ft 21 kts 123°
2026-04-29 14:14 26.26682 50.63703 16 ft 24 kts 122°
2026-04-29 14:14 26.26592 50.63863 18 ft 25 kts 122°
2026-04-29 14:14 26.26494 50.64038 16 ft 28 kts 121°
2026-04-29 14:14 26.26391 50.64233 15 ft 30 kts 127°
2026-04-29 14:15 26.26272 50.64420 14 ft 26 kts 123°
2026-04-29 14:15 26.26171 50.64592 14 ft 28 kts 123°
2026-04-29 14:15 26.26063 50.64780 15 ft 30 kts 122°
2026-04-29 14:15 26.26021 50.64858 16 ft 2 kts 114°
2026-04-29 14:16 26.26014 50.64892 16 ft 7 kts 101°
2026-04-29 14:16 26.26027 50.64950 18 ft 8 kts 50°
2026-04-29 14:16 26.26036 50.64959 16 ft 0 kts 39°
2026-04-29 14:17 26.26042 50.64964 16 ft 3 kts 37°
2026-04-29 14:17 26.26065 50.64982 17 ft 5 kts 34°
2026-04-29 14:17 26.26101 50.65007 19 ft 7 kts 27°
2026-04-29 14:18 26.26139 50.65008 18 ft 4 kts 312°
2026-04-29 14:18 26.26154 50.64966 18 ft 8 kts 291°
2026-04-29 14:18 26.26174 50.64923 18 ft 0 kts 303°
2026-04-29 14:19 26.26186 50.64903 16 ft 8 kts 303°
2026-04-29 14:19 26.26316 50.64681 15 ft 69 kts 300°
2026-04-29 14:19 26.26685 50.64047 16 ft 123 kts 304°
2026-04-29 14:20 26.27242 50.63104 125 ft 156 kts 304°
2026-04-29 14:20 26.27838 50.62046 521 ft 170 kts 303°
2026-04-29 14:20 26.28489 50.60922 1083 ft 175 kts 307°
2026-04-29 14:20 26.29165 50.59784 1739 ft 173 kts 307°
2026-04-29 14:21 26.29836 50.58660 2098 ft 181 kts 307°
2026-04-29 14:21 26.30580 50.57417 2400 ft 204 kts 306°
2026-04-29 14:21 26.31396 50.56048 2790 ft 225 kts 307°
2026-04-29 14:21 26.32318 50.54508 3281 ft 244 kts 306°
2026-04-29 14:22 26.33478 50.53073 3807 ft 259 kts 327°
2026-04-29 14:22 26.35173 50.52276 3993 ft 274 kts 347°
2026-04-29 14:22 26.37042 50.51779 4025 ft 275 kts 348°
2026-04-29 14:22 26.38881 50.51299 4024 ft 274 kts 348°
2026-04-29 14:23 26.40744 50.50819 4022 ft 274 kts 348°
2026-04-29 14:23 26.42608 50.50343 4020 ft 274 kts 348°
2026-04-29 14:23 26.44472 50.49873 4022 ft 275 kts 348°
2026-04-29 14:23 26.46333 50.49404 4020 ft 274 kts 348°
2026-04-29 14:24 26.48195 50.48938 4015 ft 274 kts 348°
2026-04-29 14:24 26.50052 50.48477 4017 ft 274 kts 348°
2026-04-29 14:24 26.51910 50.48018 4015 ft 273 kts 348°
2026-04-29 14:24 26.53750 50.47569 4016 ft 273 kts 348°
2026-04-29 14:25 26.55604 50.47119 4012 ft 273 kts 348°
2026-04-29 14:25 26.57489 50.46966 4021 ft 274 kts
2026-04-29 14:25 26.59267 50.47761 4344 ft 278 kts 38°
2026-04-29 14:25 26.60486 50.49411 5169 ft 278 kts 67°
2026-04-29 14:26 26.60925 50.51500 6042 ft 278 kts 94°
2026-04-29 14:26 26.60539 50.53460 6778 ft 277 kts 119°
2026-04-29 14:26 26.59507 50.55142 7502 ft 280 kts 134°
2026-04-29 14:26 26.58261 50.56693 8287 ft 285 kts 136°
2026-04-29 14:27 26.56998 50.58237 9020 ft 292 kts 136°
2026-04-29 14:27 26.55640 50.59966 9792 ft 300 kts 135°
2026-04-29 14:27 26.54267 50.61785 10363 ft 315 kts 135°
2026-04-29 14:28 26.51288 50.65843 10879 ft 355 kts 134°
2026-04-29 14:28 26.49725 50.68005 11694 ft 356 kts 134°
2026-04-29 14:28 26.48167 50.70162 12533 ft 359 kts 134°
2026-04-29 14:28 26.46586 50.72342 13302 ft 363 kts 134°
2026-04-29 14:29 26.45000 50.74523 14040 ft 368 kts 134°
2026-04-29 14:29 26.43346 50.76791 14659 ft 375 kts 134°
2026-04-29 14:29 26.41716 50.79026 15293 ft 380 kts 134°
2026-04-29 14:29 26.40030 50.81336 15915 ft 387 kts 134°
2026-04-29 14:30 26.38323 50.83675 16524 ft 393 kts 134°
2026-04-29 14:30 26.36582 50.86059 17126 ft 399 kts 134°
2026-04-29 14:30 26.34818 50.88474 17729 ft 404 kts 134°
2026-04-29 14:30 26.33044 50.90902 18283 ft 410 kts 134°
2026-04-29 14:31 26.31230 50.93387 18895 ft 412 kts 135°
2026-04-29 14:31 26.29567 50.96053 19491 ft 420 kts 125°
2026-04-29 14:31 26.28267 50.98676 20018 ft 424 kts 124°
2026-04-29 14:31 26.26841 51.01559 20569 ft 428 kts 124°
2026-04-29 14:32 26.25389 51.04470 21148 ft 431 kts 125°
2026-04-29 14:32 26.23918 51.07403 21722 ft 434 kts 125°
2026-04-29 14:32 26.22435 51.10355 22281 ft 437 kts 126°
2026-04-29 14:32 26.20940 51.13327 22838 ft 440 kts 126°
2026-04-29 14:33 26.19442 51.16303 23369 ft 444 kts 126°
2026-04-29 14:33 26.17923 51.19318 23802 ft 448 kts 126°
2026-04-29 14:33 26.16407 51.22327 24200 ft 452 kts 126°
2026-04-29 14:33 26.14860 51.25394 24584 ft 457 kts 126°
2026-04-29 14:34 26.13393 51.28303 24762 ft 460 kts 126°
2026-04-29 14:34 26.11835 51.31395 24813 ft 460 kts 126°
2026-04-29 14:34 26.10284 51.34466 24809 ft 460 kts 126°
2026-04-29 14:34 26.08710 51.37581 24814 ft 459 kts 126°
2026-04-29 14:35 26.07141 51.40682 24816 ft 459 kts 126°
2026-04-29 14:35 26.05579 51.43765 24816 ft 459 kts 126°
2026-04-29 14:35 26.04058 51.46766 24815 ft 459 kts 126°
2026-04-29 14:35 26.02490 51.49855 24814 ft 459 kts 126°
2026-04-29 14:36 26.00912 51.52963 24811 ft 459 kts 126°
2026-04-29 14:36 25.99342 51.56054 24811 ft 459 kts 126°
2026-04-29 14:36 25.97770 51.59146 24811 ft 459 kts 126°
2026-04-29 14:36 25.96200 51.62233 24811 ft 459 kts 126°
2026-04-29 14:37 25.95159 51.64277 24808 ft 459 kts 126°
2026-04-29 14:37 25.94138 51.66284 24807 ft 458 kts 126°
2026-04-29 14:37 25.92575 51.69350 24810 ft 458 kts 126°
2026-04-29 14:37 25.90997 51.72445 24809 ft 458 kts 126°
2026-04-29 14:38 25.89455 51.75508 24809 ft 449 kts 125°
2026-04-29 14:38 25.88002 51.78498 24807 ft 429 kts 125°
2026-04-29 14:38 25.86621 51.81366 24807 ft 410 kts 125°
2026-04-29 14:38 25.85310 51.84082 24809 ft 386 kts 126°
2026-04-29 14:39 25.84010 51.86731 24816 ft 398 kts 126°
2026-04-29 14:39 25.82775 51.89544 24814 ft 409 kts 122°
2026-04-29 14:39 25.81560 51.92424 24816 ft 426 kts 122°
2026-04-29 14:39 25.80282 51.95451 24818 ft 442 kts 121°
2026-04-29 14:40 25.78955 51.98600 24815 ft 458 kts 121°
2026-04-29 14:40 25.77597 52.01832 24812 ft 462 kts 121°
2026-04-29 14:40 25.76684 52.04014 24813 ft 460 kts 121°
2026-04-29 14:40 25.74895 52.08278 24814 ft 460 kts 121°
2026-04-29 14:41 25.73554 52.11465 24814 ft 459 kts 121°
2026-04-29 14:41 25.72646 52.13620 24813 ft 459 kts 121°
2026-04-29 14:41 25.71325 52.16748 24811 ft 459 kts 121°
2026-04-29 14:41 25.69966 52.19964 24811 ft 459 kts 121°
2026-04-29 14:42 25.68616 52.23158 24807 ft 459 kts 120°
2026-04-29 14:42 25.66801 52.27445 24806 ft 459 kts 120°
2026-04-29 14:42 25.65916 52.29535 24807 ft 459 kts 120°
2026-04-29 14:42 25.64551 52.32755 24808 ft 459 kts 120°
2026-04-29 14:43 25.63179 52.35989 24804 ft 460 kts 120°
2026-04-29 14:43 25.61826 52.39150 24808 ft 459 kts 122°
2026-04-29 14:43 25.60291 52.42225 24803 ft 457 kts 125°
2026-04-29 14:43 25.58724 52.45312 24804 ft 457 kts 124°
2026-04-29 14:44 25.57160 52.48408 24802 ft 458 kts 124°
2026-04-29 14:44 25.55700 52.51300 24801 ft 458 kts 124°
2026-04-29 14:44 25.54141 52.54389 24797 ft 458 kts 124°
2026-04-29 14:44 25.52587 52.57466 24798 ft 459 kts 124°
2026-04-29 14:45 25.51043 52.60519 24793 ft 459 kts 124°
2026-04-29 14:45 25.49462 52.63642 24795 ft 459 kts 124°
2026-04-29 14:45 25.47926 52.66675 24808 ft 459 kts 124°
2026-04-29 14:45 25.46358 52.69768 24809 ft 460 kts 124°
2026-04-29 14:46 25.44774 52.72891 24802 ft 460 kts 124°
2026-04-29 14:46 25.43174 52.75911 24793 ft 459 kts 126°
2026-04-29 14:46 25.41509 52.78928 24787 ft 459 kts 127°
2026-04-29 14:46 25.39822 52.81950 24801 ft 460 kts 127°
2026-04-29 14:47 25.38130 52.84957 24794 ft 460 kts 127°
2026-04-29 14:47 25.36443 52.87961 24797 ft 461 kts 127°
2026-04-29 14:47 25.34772 52.90947 24796 ft 461 kts 127°
2026-04-29 14:47 25.33068 52.93998 24795 ft 461 kts 127°
2026-04-29 14:48 25.31443 52.97077 24799 ft 464 kts 122°
2026-04-29 14:48 25.30123 53.00256 24795 ft 466 kts 118°
2026-04-29 14:48 25.28918 53.03230 24757 ft 467 kts 119°
2026-04-29 14:48 25.27583 53.06505 24538 ft 465 kts 119°
2026-04-29 14:49 25.26358 53.09501 24333 ft 462 kts 119°
2026-04-29 14:49 25.25039 53.12723 24111 ft 458 kts 119°
2026-04-29 14:49 25.23722 53.15936 23883 ft 456 kts 119°
2026-04-29 14:49 25.22429 53.19084 23670 ft 454 kts 119°
2026-04-29 14:50 25.21128 53.22252 23451 ft 452 kts 119°
2026-04-29 14:50 25.19832 53.25405 23205 ft 450 kts 119°
2026-04-29 14:50 25.18516 53.28536 22940 ft 446 kts 122°
2026-04-29 14:50 25.16954 53.31419 22680 ft 438 kts 130°
2026-04-29 14:51 25.15083 53.34057 22415 ft 432 kts 135°
2026-04-29 14:51 25.13171 53.36588 22160 ft 431 kts 135°
2026-04-29 14:51 25.11263 53.39132 21894 ft 428 kts 135°
2026-04-29 14:51 25.09375 53.41656 21668 ft 426 kts 135°
2026-04-29 14:52 25.07488 53.44177 21410 ft 425 kts 135°
2026-04-29 14:52 25.05602 53.46694 21152 ft 423 kts 134°
2026-04-29 14:52 25.03731 53.49190 20844 ft 421 kts 134°
2026-04-29 14:52 25.01874 53.51664 20295 ft 422 kts 134°
2026-04-29 14:53 25.00056 53.54083 19789 ft 419 kts 134°
2026-04-29 14:53 24.98126 53.56470 19248 ft 411 kts 141°
2026-04-29 14:53 24.95941 53.58447 18707 ft 402 kts 150°
2026-04-29 14:53 24.93584 53.59938 18236 ft 392 kts 159°
2026-04-29 14:54 24.91106 53.61244 17698 ft 387 kts 159°
2026-04-29 14:54 24.88730 53.62507 17261 ft 380 kts 158°
2026-04-29 14:54 24.86358 53.63773 16990 ft 377 kts 158°
2026-04-29 14:54 24.83986 53.65038 16738 ft 380 kts 158°
2026-04-29 14:55 24.81613 53.66303 16487 ft 378 kts 158°
2026-04-29 14:55 24.79252 53.67577 16236 ft 377 kts 155°
2026-04-29 14:55 24.77105 53.69257 15988 ft 381 kts 140°
2026-04-29 14:55 24.75385 53.71487 15741 ft 385 kts 126°
2026-04-29 14:56 24.74062 53.74055 15511 ft 385 kts 122°
2026-04-29 14:56 24.72770 53.76627 15270 ft 383 kts 122°
2026-04-29 14:56 24.71483 53.79171 15026 ft 380 kts 122°
2026-04-29 14:56 24.70206 53.81687 14928 ft 369 kts 122°
2026-04-29 14:57 24.68976 53.84109 14811 ft 356 kts 122°
2026-04-29 14:57 24.67789 53.86441 14696 ft 343 kts 122°
2026-04-29 14:57 24.66644 53.88690 14572 ft 331 kts 122°
2026-04-29 14:57 24.65542 53.90851 14320 ft 324 kts 122°
2026-04-29 14:58 24.64448 53.93062 14028 ft 327 kts 117°
2026-04-29 14:58 24.63692 53.95418 13761 ft 327 kts 105°
2026-04-29 14:58 24.63343 53.97877 13485 ft 327 kts 98°
2026-04-29 14:58 24.63083 54.00368 13176 ft 326 kts 98°
2026-04-29 14:59 24.62814 54.02816 12875 ft 322 kts 99°
2026-04-29 14:59 24.62539 54.05260 12575 ft 322 kts 99°
2026-04-29 14:59 24.62264 54.07695 12280 ft 319 kts 99°
2026-04-29 14:59 24.61991 54.10101 11976 ft 318 kts 99°
2026-04-29 15:00 24.61719 54.12503 11692 ft 315 kts 99°
2026-04-29 15:00 24.61459 54.14797 11415 ft 314 kts 99°
2026-04-29 15:00 24.61186 54.17202 11121 ft 311 kts 99°
2026-04-29 15:00 24.60920 54.19546 10837 ft 310 kts 99°
2026-04-29 15:01 24.60656 54.21871 10555 ft 308 kts 99°
2026-04-29 15:01 24.60390 54.24200 10280 ft 306 kts 99°
2026-04-29 15:01 24.60126 54.26517 9998 ft 303 kts 99°
2026-04-29 15:01 24.59868 54.28804 9727 ft 301 kts 99°
2026-04-29 15:02 24.59621 54.31083 9432 ft 300 kts 99°
2026-04-29 15:02 24.59359 54.33358 9137 ft 298 kts 103°
2026-04-29 15:02 24.58948 54.35434 9035 ft 294 kts 104°
2026-04-29 15:02 24.58468 54.37703 9006 ft 307 kts 107°
2026-04-29 15:03 24.57988 54.39890 8997 ft 293 kts 106°
2026-04-29 15:03 24.57528 54.42122 9004 ft 299 kts 105°
2026-04-29 15:03 24.57069 54.44383 9006 ft 299 kts 105°
2026-04-29 15:03 24.56624 54.46585 8952 ft 297 kts 105°
2026-04-29 15:04 24.56180 54.48797 8706 ft 296 kts 105°
2026-04-29 15:04 24.55731 54.51043 8328 ft 296 kts 105°
2026-04-29 15:04 24.55295 54.53220 7922 ft 296 kts 105°
2026-04-29 15:04 24.54852 54.55429 7542 ft 295 kts 105°
2026-04-29 15:05 24.54412 54.57619 7178 ft 293 kts 105°
2026-04-29 15:05 24.53978 54.59785 7040 ft 289 kts 105°
2026-04-29 15:05 24.53536 54.61973 7003 ft 295 kts 105°
2026-04-29 15:05 24.53092 54.64171 7005 ft 294 kts 105°
2026-04-29 15:06 24.52652 54.66359 7002 ft 294 kts 104°
2026-04-29 15:06 24.52209 54.68555 6913 ft 295 kts 105°
2026-04-29 15:06 24.51696 54.70729 6830 ft 292 kts 112°
2026-04-29 15:06 24.50783 54.72694 6775 ft 284 kts 127°
2026-04-29 15:07 24.49600 54.74368 6703 ft 273 kts 131°
2026-04-29 15:07 24.48440 54.75984 6546 ft 264 kts 130°
2026-04-29 15:07 24.47320 54.77557 6442 ft 265 kts 130°
2026-04-29 15:07 24.46195 54.79138 6328 ft 265 kts 130°
2026-04-29 15:08 24.45068 54.80725 6232 ft 264 kts 130°
2026-04-29 15:08 24.44039 54.82166 6131 ft 263 kts 130°
2026-04-29 15:08 24.42976 54.83658 6020 ft 263 kts 130°
2026-04-29 15:08 24.41867 54.85217 5914 ft 264 kts 130°
2026-04-29 15:09 24.40740 54.86801 5801 ft 263 kts 129°
2026-04-29 15:09 24.39605 54.88395 5690 ft 264 kts 129°
2026-04-29 15:09 24.38486 54.89967 5611 ft 258 kts 129°
2026-04-29 15:09 24.37405 54.91487 5546 ft 248 kts 129°
2026-04-29 15:10 24.36356 54.92958 5354 ft 241 kts 129°
2026-04-29 15:10 24.35334 54.94391 5217 ft 238 kts 128°
2026-04-29 15:10 24.34300 54.95839 5003 ft 240 kts 128°
2026-04-29 15:10 24.33280 54.97264 4918 ft 234 kts 129°
2026-04-29 15:11 24.32062 54.98353 4466 ft 233 kts 157°
2026-04-29 15:11 24.30501 54.98636 3755 ft 241 kts 187°
2026-04-29 15:11 24.28954 54.97984 3022 ft 244 kts 219°
2026-04-29 15:11 24.27649 54.96815 2449 ft 241 kts 222°
2026-04-29 15:12 24.26372 54.95641 2133 ft 243 kts 222°
2026-04-29 15:12 24.25501 54.94854 2043 ft 241 kts 222°
2026-04-29 15:12 24.23763 54.93248 2016 ft 245 kts 222°
2026-04-29 15:12 24.22530 54.92104 2019 ft 220 kts 222°
2026-04-29 15:13 24.21453 54.91041 2011 ft 210 kts 239°
2026-04-29 15:13 24.21230 54.89570 2233 ft 189 kts 293°
2026-04-29 15:13 24.21968 54.88640 2148 ft 149 kts 342°
2026-04-29 15:13 24.22846 54.88279 2089 ft 127 kts 342°
2026-04-29 15:14 24.23655 54.87860 2017 ft 128 kts 346°
2026-04-29 15:14 24.24494 54.87646 2011 ft 124 kts 356°
2026-04-29 15:14 24.25348 54.87524 2014 ft 123 kts 357°
2026-04-29 15:14 24.26205 54.87404 2014 ft 124 kts 355°
2026-04-29 15:15 24.27054 54.87262 2013 ft 124 kts 353°
2026-04-29 15:15 24.27898 54.87101 2008 ft 124 kts 353°
2026-04-29 15:15 24.28760 54.86924 2011 ft 125 kts 352°
2026-04-29 15:15 24.29607 54.86728 2006 ft 125 kts 346°
2026-04-29 15:16 24.30390 54.86291 2013 ft 128 kts 328°
2026-04-29 15:16 24.31030 54.85635 2009 ft 131 kts 318°
2026-04-29 15:16 24.31586 54.84903 2010 ft 132 kts 314°
2026-04-29 15:16 24.32142 54.84117 2007 ft 133 kts 314°
2026-04-29 15:17 24.32698 54.83331 2009 ft 133 kts 314°
2026-04-29 15:17 24.33265 54.82531 2007 ft 132 kts 314°
2026-04-29 15:17 24.33828 54.81737 2008 ft 131 kts 314°
2026-04-29 15:17 24.34198 54.81214 2006 ft 132 kts 314°
2026-04-29 15:18 24.34767 54.80411 2004 ft 133 kts 315°
2026-04-29 15:18 24.35343 54.79599 2010 ft 135 kts 315°
2026-04-29 15:18 24.35920 54.78783 2001 ft 134 kts 315°
2026-04-29 15:18 24.36496 54.77972 2008 ft 135 kts 315°
2026-04-29 15:19 24.37072 54.77158 2005 ft 134 kts 315°
2026-04-29 15:19 24.37638 54.76359 2004 ft 135 kts 316°
2026-04-29 15:19 24.38216 54.75543 1921 ft 135 kts 316°
2026-04-29 15:19 24.38786 54.74737 1762 ft 131 kts 315°
2026-04-29 15:20 24.39336 54.73960 1607 ft 128 kts 316°
2026-04-29 15:20 24.39897 54.73171 1431 ft 133 kts 315°
2026-04-29 15:20 24.40447 54.72389 1270 ft 128 kts 316°
2026-04-29 15:20 24.40972 54.71659 1092 ft 129 kts 315°
2026-04-29 15:21 24.41542 54.70896 896 ft 135 kts 314°
2026-04-29 15:21 24.42109 54.70058 800 ft 137 kts 309°
2026-04-29 15:21 24.42632 54.69205 661 ft 131 kts 310°
2026-04-29 15:21 24.43224 54.68481 459 ft 125 kts 314°
2026-04-29 15:22 24.43767 54.67724 269 ft 127 kts 307°
2026-04-29 15:22 24.44276 54.66943 115 ft 125 kts 313°
2026-04-29 15:22 24.44802 54.66241 93 ft 114 kts 312°
2026-04-29 15:22 24.45170 54.65713 67 ft 58 kts 309°
2026-04-29 15:23 24.45320 54.65498 71 ft 28 kts 309°
2026-04-29 15:23 24.45383 54.65365 72 ft 17 kts 289°
2026-04-29 15:23 24.45414 54.65242 74 ft 14 kts 278°
2026-04-29 15:23 24.45419 54.65197 66 ft 0 kts 277°
2026-04-29 15:24 24.45421 54.65183 69 ft 4 kts 276°
2026-04-29 15:24 24.45426 54.65136 74 ft 8 kts 276°
2026-04-29 15:25 24.45429 54.65106 74 ft 0 kts 277°
2026-04-29 15:25 24.45431 54.65086 74 ft 5 kts 277°
2026-04-29 15:26 24.45438 54.65035 68 ft 8 kts 283°
2026-04-29 15:26 24.45469 54.64984 69 ft 9 kts 302°
2026-04-29 15:26 24.45468 54.64918 70 ft 11 kts 232°
2026-04-29 15:26 24.45449 54.64849 71 ft 8 kts 320°
2026-04-29 15:27 24.45488 54.64798 70 ft 10 kts 307°
2026-04-29 15:27 24.45536 54.64729 71 ft 13 kts 307°
2026-04-29 15:27 24.45596 54.64644 72 ft 15 kts 308°
2026-04-29 15:27 24.45650 54.64567 69 ft 15 kts 308°
2026-04-29 15:28 24.45719 54.64471 70 ft 17 kts 308°
2026-04-29 15:28 24.45764 54.64409 71 ft 16 kts 308°
2026-04-29 15:28 24.45860 54.64276 64 ft 17 kts 307°
2026-04-29 15:28 24.45931 54.64168 71 ft 17 kts 308°
2026-04-29 15:29 24.45993 54.64082 70 ft 13 kts 309°
2026-04-29 15:29 24.46127 54.63996 72 ft 10 kts 38°
2026-04-29 15:30 24.46221 54.63921 66 ft 11 kts 308°
2026-04-29 15:30 24.46276 54.63848 69 ft 13 kts 319°
2026-04-29 15:30 24.46354 54.63863 63 ft 7 kts 39°
2026-04-29 15:30 24.46389 54.63909 64 ft 9 kts 79°
2026-04-29 15:31 24.46390 54.64001 69 ft 15 kts 97°
2026-04-29 15:31 24.46358 54.64121 68 ft 14 kts 101°
2026-04-29 15:31 24.46360 54.64141 69 ft 0 kts 66°